Simultaneous Nadir Overpasses (SNOs) Predictions

Prediction of SNOs between NOAA-19 and TERRA Satellite Orbit:

Table of predicted SNOs for the next 14.0 days since TLE Epoch: 3/6/2020
Index Date (NOAA-19) Time (NOAA-19) Lat,Lon (NOAA-19) SZA (NOAA-19 ) Date (TERRA) Time (TERRA) Lat,Lon (TERRA) SZA (TERRA ) Distance(km) Time Diff (sec)
1 03/08/2020 12:27:57 79.25, 19.54 84.70 03/08/2020 12:28:30 79.26, 19.60 84.72 1.31 33
2 03/08/2020 13:19:01 -79.21,-172.87 95.33 03/08/2020 13:17:58 -79.22,-172.99 95.35 2.83 63
3 03/10/2020 18:01:22 -79.25, 116.25 96.16 03/10/2020 18:02:14 -79.25, 116.14 96.16 2.20 52
4 03/10/2020 18:52:17 79.25, -76.41 83.83 03/10/2020 18:51:40 79.25, -76.24 83.83 3.56 37
5 03/12/2020 23:34:47 79.56,-149.85 83.06 03/12/2020 23:35:51 79.47,-145.85 83.29 81.52 64
6 03/13/2020 00:25:42 -79.25, 20.29 97.03 03/13/2020 00:25:24 -79.24, 20.31 97.04 0.73 18
7 03/15/2020 05:58:57 79.26, 117.00 82.12 03/15/2020 05:59:06 79.26, 117.00 82.12 0.33 9
8 03/17/2020 11:32:22 -79.27,-146.36 98.75 03/17/2020 11:32:50 -79.26,-146.44 98.75 1.98 28
9 03/17/2020 12:23:17 79.26, 21.04 81.24 03/17/2020 12:22:16 79.25, 21.12 81.22 1.88 61
10 03/19/2020 17:05:38 79.30, -49.88 80.41 03/19/2020 17:06:32 79.27, -49.81 80.40 4.01 54




NCC Satellite Simultaneous Nadir Overpasses (SNOs) Prediction Service
